This demonstration page uses our WeatherBlox Daily Observations layout. Learn more.

Hourly Observations for January 8, 2020

Temp ( °F °C ) Dew Point ( °F °C ) Humidity (%) Winds ( mph kmh ) Pressure ( in mb ) Visibility ( mi km ) Precip ( " mm )
12:15 am 00:15 Clear 31 -0.7 28 -2.4 88 88 E 12 19 30.26 1025 10 16.0934 0 0
12:35 am 00:35 Clear 31 -0.8 28 -2.3 90 90 E 10 17 30.26 1025 10 16.0934 0 0
12:55 am 00:55 Clear 29 -1.5 27 -2.7 92 92 E 8 13 30.27 1025 10 16.0934 0 0
1:15 am 01:15 Clear 29 -1.5 27 -2.6 92 92 E 12 19 30.26 1025 10 16.0934 0 0
1:35 am 01:35 Clear 29 -1.9 27 -3 92 92 E 13 20 30.26 1025 10 16.0934 0 0
1:55 am 01:55 Clear 28 -2.1 27 -3 94 94 E 13 20 30.27 1025 10 16.0934 0 0
2:15 am 02:15 Clear 28 -2.3 27 -3 95 95 E 12 19 30.26 1025 10 16.0934 0 0
2:35 am 02:35 Clear 27 -2.6 26 -3.2 96 96 E 14 22 30.26 1025 10 16.0934 0 0
2:55 am 02:55 Clear 27 -2.7 26 -3.5 94 94 E 16 26 30.25 1024 10 16.0934 0 0
3:15 am 03:15 Clear 27 -3 26 -3.5 96 96 E 14 22 30.25 1025 10 16.0934 0 0
3:35 am 03:35 Clear 26 -3.2 25 -3.7 96 96 E 14 22 30.25 1024 10 16.0934 0 0
3:55 am 03:55 Clear 26 -3.2 25 -3.7 96 96 E 17 28 30.23 1024 10 16.0934 0 0
4:15 am 04:15 Clear 26 -3.5 25 -3.9 97 97 E 15 24 30.23 1024 10 16.0934 0 0
4:35 am 04:35 Clear 26 -3.5 25 -4 96 96 E 16 26 30.22 1023 10 16.0934 0 0
4:55 am 04:55 Clear 25 -3.8 24 -4.2 97 97 E 14 22 30.22 1023 10 16.0934 0 0
5:15 am 05:15 Partly Cloudy 25 -4 24 -4.2 99 99 E 13 20 30.22 1024 10 16.0934 0 0
5:35 am 05:35 Mostly Cloudy 25 -4 24 -4.2 99 99 E 15 24 30.21 1023 10 16.0934 0 0
5:55 am 05:55 Cloudy 25 -3.9 25 -4.1 99 99 E 16 26 30.2 1023 10 16.0934 0 0
6:15 am 06:15 Mostly Cloudy 25 -4 24 -4.3 98 98 E 15 24 30.2 1023 10 16.0934 0 0
6:35 am 06:35 Partly Cloudy 25 -4 24 -4.3 98 98 ESE 16 26 30.18 1022 10 16.0934 0 0
6:55 am 06:55 Clear 25 -4 24 -4.5 96 96 ESE 17 28 30.17 1022 10 16.0934 0 0
7:15 am 07:15 Clear 25 -4 23 -5 93 93 ESE 17 28 30.17 1022 10 16.0934 0 0
7:35 am 07:35 Clear 25 -4 23 -5 93 93 ESE 16 26 30.17 1022 10 16.0934 0 0
7:55 am 07:55 Clear 25 -4 23 -5.1 92 92 ESE 16 26 30.15 1021 10 16.0934 0 0
8:15 am 08:15 Sunny 25 -4 23 -5.1 92 92 ESE 15 24 30.15 1021 10 16.0934 0 0
8:35 am 08:35 Sunny 25 -3.9 23 -5 92 92 ESE 15 24 30.14 1021 10 16.0934 0 0
8:55 am 08:55 Sunny 25 -3.7 24 -4.7 93 93 SE 16 26 30.14 1021 10 16.0934 0 0
9:15 am 09:15 Sunny 26 -3.2 24 -4.2 93 93 SE 15 24 30.13 1020 10 16.0934 0 0
9:35 am 09:35 Sunny 27 -3 25 -4 93 93 SE 16 26 30.11 1020 10 16.0934 0 0
9:55 am 09:55 Sunny 27 -2.6 26 -3.5 94 94 SE 17 28 30.1 1019 10 16.0934 0 0
10:15 am 10:15 Sunny 29 -1.5 27 -2.6 92 92 SE 17 28 30.08 1019 10 16.0934 0 0
10:35 am 10:35 Partly Cloudy 31 -0.8 28 -2.1 91 91 SE 18 30 30.06 1018 10 16.0934 0 0
10:55 am 10:55 Sunny 31 -0.7 28 -2.3 89 89 SE 20 31 30.04 1017 10 16.0934 0 0
11:15 am 11:15 Sunny 32 0 29 -1.6 89 89 SE 23 37 30 1016 10 16.0934 0 0
11:35 am 11:35 Sunny 33 0.7 30 -1.3 87 87 SE 17 28 29.99 1016 10 16.0934 0 0
11:55 am 11:55 Sunny 35 1.4 30 -1.1 84 84 ESE 20 31 29.95 1014 10 16.0934 0 0
12:15 pm 12:15 Sunny 36 2.1 30 -1.1 80 80 SE 18 30 29.93 1014 10 16.0934 0 0
12:35 pm 12:35 Sunny 37 2.7 30 -1.2 76 76 SE 16 26 29.9 1012 10 16.0934 0 0
12:55 pm 12:55 Sunny 39 3.9 31 -0.8 72 72 SE 15 24 29.88 1012 10 16.0934 0 0
1:15 pm 13:15 Sunny 40 4.7 29 -1.4 65 65 SE 16 26 29.85 1011 10 16.0934 0 0
1:35 pm 13:35 Sunny 40 4.4 29 -1.8 64 64 SE 14 22 29.84 1011 10 16.0934 0 0
1:55 pm 13:55 Sunny 41 5 28 -2.1 60 60 SSE 15 24 29.83 1010 10 16.0934 0 0
2:15 pm 14:15 Sunny 41 5.2 28 -2.1 60 60 SSE 14 22 29.81 1009 10 16.0934 0 0
2:35 pm 14:35 Sunny 42 5.6 29 -1.8 59 59 SSE 16 26 29.79 1009 10 16.0934 0 0
2:55 pm 14:55 Sunny 41 5.2 29 -1.9 61 61 SSE 18 30 29.79 1009 10 16.0934 0 0
3:15 pm 15:15 Sunny 41 5.1 29 -1.6 62 62 SSE 16 26 29.79 1009 10 16.0934 0 0
3:35 pm 15:35 Sunny 41 5.2 30 -1.2 64 64 SSE 13 20 29.78 1008 10 16.0934 0 0
3:55 pm 15:55 Sunny 40 4.6 30 -1.1 67 67 SE 12 19 29.77 1008 10 16.0934 0 0
4:15 pm 16:15 Sunny 40 4.5 30 -1 68 68 SE 9 15 29.77 1008 10 16.0934 0 0
4:35 pm 16:35 Sunny 39 3.8 31 -0.7 73 73 ESE 7 11 29.77 1008 10 16.0934 0 0
4:55 pm 16:55 Sunny 37 3 30 -1 75 75 ESE 7 11 29.77 1008 10 16.0934 0 0
5:15 pm 17:15 Sunny 35 1.9 30 -1.2 80 80 E 6 9 29.78 1008 10 16.0934 0 0
5:35 pm 17:35 Clear 34 1.3 30 -1.2 84 84 ESE 8 13 29.77 1008 10 16.0934 0 0
5:55 pm 17:55 Clear 35 1.8 31 -0.7 84 84 ESE 9 15 29.75 1007 10 16.0934 0 0
6:15 pm 18:15 Clear 35 1.6 31 -0.8 84 84 ESE 9 15 29.74 1007 10 16.0934 0 0
6:35 pm 18:35 Clear 36 2 30 -1 81 81 SE 9 15 29.74 1007 10 16.0934 0 0
6:55 pm 18:55 Clear 36 2 30 -1.3 79 79 SE 9 15 29.73 1007 10 16.0934 0 0
7:15 pm 19:15 Clear 36 2 29 -1.5 78 78 SE 12 19 29.72 1006 10 16.0934 0 0
7:35 pm 19:35 Clear 35 1.8 29 -1.5 79 79 SE 9 15 29.71 1006 10 16.0934 0 0
7:55 pm 19:55 Clear 34 1.2 29 -1.6 82 82 SE 8 13 29.71 1006 10 16.0934 0 0
8:15 pm 20:15 Clear 34 1.3 28 -2 79 79 SE 9 15 29.69 1005 10 16.0934 0 0
8:35 pm 20:35 Clear 37 2.6 29 -1.6 74 74 SSE 8 13 29.67 1005 10 16.0934 0 0
8:55 pm 20:55 Clear 37 3 29 -1.5 73 73 SSE 9 15 29.67 1005 10 16.0934 0 0
9:15 pm 21:15 Clear 39 3.7 30 -1.2 71 71 SSE 10 17 29.64 1004 10 16.0934 0 0
9:35 pm 21:35 Clear 39 3.8 30 -1.3 70 70 SSE 12 19 29.63 1003 10 16.0934 0 0
9:55 pm 21:55 Clear 40 4.4 30 -1.3 67 67 S 15 24 29.6 1002 10 16.0934 0 0
10:15 pm 22:15 Clear 40 4.5 30 -1.3 66 66 SSE 16 26 29.59 1002 10 16.0934 0 0
10:35 pm 22:35 Clear 40 4.6 30 -1.2 66 66 S 16 26 29.59 1002 10 16.0934 0 0
10:55 pm 22:55 Clear 41 4.8 30 -1 66 66 S 13 20 29.58 1002 10 16.0934 0 0
11:15 pm 23:15 Clear 41 5 31 -0.8 66 66 S 14 22 29.57 1001 10 16.0934 0 0
11:35 pm 23:35 Clear 41 5 31 -0.7 67 67 S 13 20 29.56 1001 10 16.0934 0 0
11:55 pm 23:55 Clear 41 5.1 31 -0.5 67 67 S 13 20 29.57 1001 10 16.0934 0 0

Powered by AerisWeather